• Join FlightAware (Why Join?)
  • Login
  • US Flag GB Flag 
07:40 EDT


 

Airport Tracker/Info


-or-


 

Live Flight TrackerFlight Track Log ✈ DAL6234 ✈ 22-Apr-2013 ✈ KLGA - KSYR

Flight Track Log - Related Links

Times and Time Zones

All times are in EDT time to prevent confusion due to time zone crossing. See the DAL6234 flight status page for this flight to view local times or setup timezone preferences in your user account.

Time Position Orientation Groundspeed Altitude Reporting Facility
EDT Latitude Longitude Course Direction KTS MPH feet Rate Location/Type
17:27 40.7500 -73.8000 313° West 187 215 3,800  Level New York TRACON
17:28 40.8000 -73.7667 27° Northeast 222 255 5,000 1,740 Climbing New York TRACON
17:29 40.8667 -73.7833 349° North 268 308 7,300 2,940 Climbing New York TRACON
17:30 40.9000 -73.8667 298° West 278 320 10,900 2,400 Climbing New York TRACON
17:31 40.9667 -73.9667 311° West 331 381 12,100 1,320 Climbing New York TRACON
17:32 41.0333 -74.0667 311° West 381 438 13,600 1,260 Climbing New York TRACON
17:33 41.0776 -74.3465 313° West  Level FlightAware Approximate
17:34 41.1269 -74.3244 296° West 401 461 15,900  Level New York Center
17:35 41.1792 -74.4511 299° West 396 456 16,000  Climbing New York Center
17:36 41.2256 -74.5669 298° West 396 456 16,000 780 Level New York Center
17:37 41.2983 -74.6953 307° West 401 461 17,600 1,380 Climbing New York Center
17:38 41.3636 -74.7986 310° West 401 461 18,900 1,440 Climbing New York Center
17:39 41.4367 -74.9164 310° West 406 467 20,500 1,380 Climbing New York Center
17:40 41.5136 -75.0375 310° West 413 475 21,700 720 Climbing New York Center
17:41 41.5903 -75.1617 310° West 424 488 22,000 120 Climbing New York Center
17:42 41.6647 -75.2858 309° West 424 488 22,000  Level New York Center
17:43 41.7389 -75.4106 309° West 434 499 22,000  Level New York Center
17:44 41.8131 -75.5408 307° West 434 499 22,000  Level New York Center
17:45 41.8869 -75.6686 308° West 434 499 22,000 -540 Level New York Center
17:46 41.9608 -75.7942 308° West 434 499 21,000 -1,020 Descending New York Center
17:47 42.0344 -75.9225 308° West 434 499 20,000 -960 Descending New York Center
17:48 42.1039 -76.0453 307° West 434 499 19,100 -1,200 Descending New York Center
17:49 42.1936 -76.1336 324° Northwest 421 484 17,600 -1,740 Descending New York Center
17:50 42.3067 -76.1233 North 374 430 15,600 -2,220 Descending New York Center
17:51 42.3806 -76.1139 North 404 465 14,300 -2,220 Descending Boston Center
17:51 42.4767 -76.1028 North 383 441 12,500 -1,740 Descending Boston Center
17:52 42.5792 -76.0919 North 372 428 11,000 -1,200 Descending Boston Center
17:53 42.6775 -76.0836 North 339 390 10,100 -1,260 Descending Boston Center
17:54 42.7422 -76.1439 326° Northwest 273 314 8,500 -1,740 Descending Boston Center
17:55 42.7981 -76.2208 315° West 276 318 6,600 -1,680 Descending Boston Center
17:56 42.8519 -76.2950 315° West 277 319 5,200 -840 Descending Boston Center
17:57 42.9039 -76.3664 315° West 250 288 5,000 -60 Descending Boston Center
17:58 42.9714 -76.4019 339° North 236 272 5,100  Climbing Boston Center
17:59 43.0308 -76.4256 344° North 236 272 5,100 -180 Level Boston Center
18:01 43.0886 -76.3839 28° Northeast 225 259 4,800 -900 Descending Boston Center
18:01 43.1033 -76.3194 73° East 196 226 3,400 -1,440 Descending Boston Center
18:02 43.1039 -76.2425 89° East 199 229 2,100 -1,080 Descending Boston Center
18:03 43.1061 -76.1772 87° East 160 184 1,300 -840 Descending Boston Center
18:05 43.1000 -76.1000 124° Southeast  Level FlightAware Approximate
18:12 43.1112 -76.1063 124° Southeast  Level Estimated
18:13 43.1112 -76.1063 124° Southeast  Level Estimated
18:14 43.1112 -76.1063 124° Southeast  Level Estimated
18:15 43.1112 -76.1063 124° Southeast  Level Estimated
18:16 43.1112 -76.1063 124° Southeast  Level Estimated